Hourly Data Report for October 20, 2014

All times are specified in Local Standard Time (LST). Add 1 hour to adjust for Daylight Saving Time where and when it is observed.

FREDERICTON
NEW BRUNSWICK

45°52'08.000" N
66°32'14.000" W
20.70 m
8101505
71700
YFC

Download Data

Hourly Data (October 2014)
Hourly Data Report for October 20, 2014
Temp Definition
°C
Dew Point Temp Definition
°C
Rel Hum Definition
%
Wind Dir Definition
10's deg

Wind Spd Definition
km/h
Visibility Definition
km
Stn Press Definition
kPa
Hmdx Definition


Wind Chill Definition


Weather Definition


TIME
00:00 Legend Double Dagger 5.0 0.6 73 28 5 16.1 100.32     LegendNANA
01:00 Legend Double Dagger 5.1 0.6 73 27 11 16.1 100.34     LegendNANA
02:00 Legend Double Dagger 5.0 0.4 72 28 13 16.1 100.31     LegendNANA
03:00 Legend Double Dagger 4.9 0.1 71 29 15 16.1 100.31     LegendNANA
04:00 Legend Double Dagger 3.8 -0.4 74 28 15 16.1 100.36     LegendNANA
05:00 Legend Double Dagger 2.9 -0.9 76 29 18 16.1 100.44     LegendNANA
06:00 Legend Double Dagger 2.7 -1.1 76 28 13 16.1 100.50     LegendNANA
07:00 Legend Double Dagger 2.8 -0.6 78 26 11 16.1 100.56     LegendNANA
08:00 Legend Double Dagger 4.1 -1.5 67 27 22 16.1 100.66     LegendNANA
09:00 Legend Double Dagger 5.3 -2.4 58 27 28 16.1 100.71     LegendNANA
10:00 Legend Double Dagger 5.1 -1.7 61 27 18 16.1 100.73     LegendNANA
11:00 Legend Double Dagger 5.9 -1.7 58 26 24 16.1 100.75     LegendNANA
12:00 Legend Double Dagger 5.8 -1.9 58 27 22 16.1 100.77     LegendNANA
13:00 Legend Double Dagger 6.9 -1.8 54 25 28 16.1 100.77     LegendNANA
14:00 Legend Double Dagger 6.7 -1.9 54 26 22 16.1 100.75     LegendNANA
15:00 Legend Double Dagger 7.6 -1.9 51 28 13 16.1 100.77     LegendNANA
16:00 Legend Double Dagger 8.4 -2.6 46 24 21 16.1 100.77     LegendNANA
17:00 Legend Double Dagger 7.6 -2.0 51 25 11 16.1 100.83     LegendNANA
18:00 Legend Double Dagger 5.0 -1.2 64 21 8 16.1 100.90     LegendNANA
19:00 Legend Double Dagger 3.3 -0.5 76 23 9 16.1 100.97     LegendNANA
20:00 Legend Double Dagger 2.0 -1.4 79 21 11 16.1 101.03     LegendNANA
21:00 Legend Double Dagger 1.8 -1.4 79 26 5 16.1 101.12     LegendNANA
22:00 Legend Double Dagger -0.5 -2.1 89 19 11 16.1 101.17   -4 LegendNANA
23:00 Legend Double Dagger 0.1 -1.8 87 14 5 16.1 101.24     LegendNANA

Notes on Data Quality.

Legend

  • E = Estimated
  • M = Missing
  • NA = Not Available
  • ‡ = Partner data that is not subject to review by the National Climate Archives
Date modified: